Lapse_Rate
1.9 1.3 0.3 1.7 6.3 6.5 6.5 6.5 6.5 6.5 6.5 5.4 5.8 6.1 6.4 6.6 6.5 6.5 5.4 5.0 5.3 4.6 4.5 4.6 4.6 4.1 3.6 3.5 3.4 3.6 3.4 3.5 3.6 3.9 3.8 4.0 4.3 4.6 4.8 5.1 5.5 6.1 6.3 6.4 6.2 5.9 5.6 5.6 5.7
1.1 3.0 1.3 1.8 6.5 6.5 6.5 6.5 6.5 6.5 5.9 4.7 5.2 5.5 6.1 6.5 6.8 6.0 6.1 5.5 5.5 5.2 4.6 4.7 4.5 4.1 3.8 3.8 4.0 3.8 3.9 3.6 3.8 4.0 3.9 4.2 4.4 4.7 4.7 5.2 5.8 6.3 6.4 6.4 6.4 5.9 5.6 5.3 5.3
3.1 3.1 3.1 6.5 6.5 6.5 6.5 6.5 6.5 6.3 5.2 4.9 5.9 5.4 6.1 6.8 6.7 6.4 5.8 5.5 5.8 5.3 4.8 4.9 4.7 4.0 4.1 4.5 4.2 4.0 4.1 3.6 3.8 4.0 4.3 4.4 4.8 5.0 5.0 5.2 5.7 6.0 6.0 6.4 6.2 5.8 5.3 4.8 5.0
3.2 2.4 2.3 6.5 6.5 6.5 6.5 6.5 6.4 6.4 5.7 5.6 5.6 6.5 6.1 5.5 6.5 6.0 5.9 5.4 5.2 5.1 4.7 4.8 4.7 4.5 4.8 4.7 4.0 3.7 3.2 3.5 3.9 4.2 4.8 4.9 5.1 5.2 5.0 5.2 5.5 5.9 6.0 6.0 6.1 5.6 4.9 4.6 4.7
0.7 1.6 6.5 6.5 6.5 6.5 6.5 6.2 6.1 6.5 6.2 6.4 5.3 6.4 6.6 5.4 5.2 5.3 4.8 4.9 4.8 4.9 4.8 5.1 5.2 5.2 5.0 4.5 3.9 3.6 3.6 3.6 4.1 4.4 4.8 4.9 4.9 4.9 4.7 4.9 5.0 5.5 5.8 5.6 5.5 5.3 5.0 4.8 5.1
3.0 2.8 6.5 6.5 6.5 6.5 6.5 5.8 6.1 6.4 6.1 6.0 5.8 6.0 6.5 6.0 5.5 4.0 3.6 3.3 4.0 4.4 4.5 6.0 6.2 5.8 5.3 4.7 3.3 3.8 3.6 3.9 4.3 4.4 4.3 4.5 4.5 4.5 4.6 4.9 5.1 5.1 5.4 5.4 5.5 5.6 5.6 5.5 5.7
5.6 6.5 6.5 6.5 6.5 6.5 6.5 5.5 6.4 6.2 6.0 6.3 5.6 6.5 6.0 6.0 4.5 3.6 2.9 2.9 3.2 4.1 4.5 4.8 5.2 5.5 6.5 4.0 3.9 3.9 3.9 3.7 3.5 3.7 3.8 4.0 4.4 4.7 5.1 5.0 5.1 5.2 5.5 5.9 5.9 6.0 5.9 6.2 5.7
1.6 6.5 6.5 6.5 6.5 6.5 6.4 6.2 5.6 5.8 6.3 6.1 5.3 6.5 6.6 5.5 3.7 3.5 3.4 3.6 3.3 3.4 4.5 4.1 3.8 5.5 5.1 4.0 4.0 3.8 3.6 3.9 3.6 3.5 4.1 4.6 4.8 5.2 5.0 5.0 4.9 5.3 5.5 5.8 6.4 5.9 6.0 6.4 6.0
3.4 6.5 6.5 6.5 6.5 6.5 6.0 6.4 6.2 5.8 5.5 6.9 5.7 5.1 5.3 5.1 4.6 3.9 3.7 4.0 3.7 3.7 4.2 4.4 5.5 5.1 4.1 4.3 4.8 4.5 3.5 3.3 3.5 4.4 4.5 4.5 4.4 4.5 4.6 4.8 5.2 5.4 5.7 5.7 5.9 6.2 5.7 5.1 4.8
5.3 6.5 6.5 6.5 6.5 6.5 6.1 6.2 6.2 6.0 6.8 6.9 6.5 6.2 5.8 5.7 5.2 4.9 4.2 4.1 4.2 4.5 4.4 4.9 5.8 5.0 5.6 5.2 4.3 3.4 3.0 3.2 3.8 4.2 4.1 4.0 3.9 4.0 4.3 4.8 5.0 5.5 5.4 5.4 5.5 4.9 4.9 4.8 4.5
5.7 6.5 6.5 5.9 4.8 5.4 5.6 6.3 6.2 6.2 6.5 6.9 6.9 6.8 6.2 6.0 5.9 5.9 4.9 4.7 3.9 3.8 4.5 4.3 4.9 5.5 5.0 4.0 2.7 2.7 2.9 3.3 3.5 3.8 3.9 3.6 3.4 3.8 4.2 4.3 4.6 4.4 4.7 4.8 4.7 4.1 3.9 4.0 4.3
6.5 5.6 5.7 5.9 4.5 5.3 6.4 5.9 6.4 6.1 5.8 5.7 6.5 6.1 6.6 6.2 6.1 6.1 5.1 3.9 4.1 5.2 4.3 4.1 4.1 4.4 4.4 3.1 2.7 2.5 2.8 3.1 3.1 3.7 3.9 3.6 3.0 3.2 3.3 3.3 3.7 3.8 3.8 3.3 3.4 3.2 3.6 3.7 4.0
6.5 6.5 5.8 5.6 4.7 5.3 5.5 6.2 6.2 6.1 4.9 4.7 5.7 6.3 6.4 6.6 6.4 6.2 6.4 5.1 4.0 4.1 3.6 4.0 4.1 4.4 3.7 2.6 2.7 2.7 3.0 3.1 3.6 4.2 4.5 4.1 3.1 2.4 2.9 2.8 3.1 3.1 3.3 3.2 2.8 3.0 3.0 3.2 3.4
5.8 6.0 6.3 5.7 6.0 6.0 6.4 6.4 6.1 6.7 4.8 4.9 5.4 6.0 5.4 4.7 5.6 5.9 6.0 5.7 4.4 4.2 3.8 4.2 4.1 3.9 3.4 2.7 2.6 2.6 3.3 3.9 4.1 4.1 4.1 3.7 3.3 2.8 2.5 1.9 2.0 2.3 2.9 3.2 3.1 2.7 2.4 2.2 2.9
5.9 6.5 6.5 6.5 6.1 6.4 5.1 6.5 6.5 6.5 4.8 3.9 5.0 6.1 5.9 3.9 3.6 5.2 5.0 4.0 4.1 3.9 4.0 3.5 3.6 4.2 3.3 2.7 2.9 3.0 3.5 3.9 3.3 3.1 3.5 3.8 3.6 3.0 2.8 2.0 1.8 1.9 2.6 2.8 2.8 2.3 2.3 1.8 2.4
6.5 6.5 6.5 6.5 6.5 6.1 6.3 6.5 6.5 6.0 4.8 4.9 4.3 5.0 6.0 4.6 4.0 4.2 5.0 4.1 3.0 3.2 2.9 3.5 4.3 3.0 2.5 2.1 2.8 2.8 3.3 3.5 3.2 3.1 3.1 3.4 3.4 3.2 2.5 1.6 1.5 2.0 2.4 2.6 1.7 1.2 0.5 0.5 0.7
6.5 6.5 6.5 6.5 6.3 6.5 6.5 6.5 6.4 6.1 5.4 5.2 4.9 4.4 4.5 4.4 3.9 3.7 4.0 3.5 2.8 2.8 3.1 3.3 3.0 2.7 2.0 2.0 2.7 2.9 2.9 3.0 2.8 2.4 2.3 2.8 3.1 3.2 2.8 1.8 1.7 2.5 2.2 1.6 1.8 0.2 0.9 1.0 1.3
6.5 6.5 6.5 6.5 6.5 6.5 6.5 6.5 6.5 6.2 6.5 6.2 4.3 4.7 4.3 3.8 3.4 3.1 2.9 2.9 3.0 2.9 3.2 3.1 2.5 1.8 1.6 1.4 1.9 2.2 2.1 2.2 2.3 2.1 2.6 2.8 2.5 2.8 2.5 2.0 2.1 2.4 1.1 0.4 0.7 1.0 0.4 1.0 1.3
6.5 6.5 6.5 6.5 6.5 6.5 6.5 6.5 6.5 6.1 6.2 5.8 5.0 4.4 4.3 3.5 3.4 3.2 2.7 2.9 2.8 2.9 2.5 2.4 1.8 1.3 1.7 1.8 2.0 1.7 1.7 1.5 1.4 2.0 2.4 2.0 2.1 2.4 2.6 2.2 1.7 1.7 0.5 0.6 1.5 1.1 2.0 1.4 0.6
6.5 6.5 6.5 6.5 6.5 6.5 6.5 6.5 6.5 6.4 6.3 6.1 5.5 4.6 4.2 3.8 3.5 3.4 2.3 2.2 2.6 2.6 2.3 2.2 2.2 1.4 2.1 2.5 1.2 1.8 1.2 1.0 1.3 1.5 1.5 2.1 2.4 2.9 2.7 2.0 1.0 1.1 0.2 0.8 1.0 1.6 1.3 0.7 0.1
6.5 6.5 6.5 6.5 6.5 6.5 6.5 6.5 6.5 6.5 6.1 5.6 5.6 4.7 5.0 4.9 3.9 3.8 3.1 2.7 2.5 2.4 2.2 2.5 2.1 1.4 2.0 1.9 1.1 -0.1 0.4 0.9 0.9 0.4 0.3 1.0 2.5 2.9 2.6 1.9 1.2 0.9 1.0 0.4 0.5 1.3 1.7 0.7 -0.2
6.5 6.5 6.5 6.5 6.5 6.5 6.5 6.5 6.5 6.5 6.5 6.5 5.9 4.2 4.3 3.3 3.9 3.8 3.5 2.9 2.6 2.8 2.2 2.2 1.6 1.3 1.8 1.4 1.8 1.3 1.9 1.3 0.7 0.2 -0.3 0.6 2.2 1.9 2.1 1.7 1.3 0.8 0.9 0.2 0.7 0.8 0.1 0.0 0.9
6.5 6.5 6.5 6.5 6.5 6.5 6.5 6.5 6.5 6.5 6.5 6.5 6.1 5.0 3.8 3.3 2.7 2.4 2.7 2.9 2.4 1.5 1.1 1.6 1.7 1.5 2.8 2.3 2.5 1.9 1.8 1.2 0.8 -0.2 -0.0 -0.1 0.6 1.6 1.6 1.4 1.1 0.6 0.7 1.3 2.1 1.6 0.4 -0.1 0.7
6.5 6.5 6.5 6.5 6.5 6.5 6.5 6.5 6.5 6.5 6.5 6.5 6.1 5.6 4.3 3.3 2.2 2.3 2.1 1.9 1.9 0.3 0.6 0.7 1.2 1.7 2.1 2.2 1.5 1.6 1.0 0.4 1.3 0.2 0.1 -0.1 -0.4 -0.2 0.9 1.2 1.7 2.2 1.9 2.1 1.4 -0.2 0.9 0.6 1.1
6.5 6.5 6.5 6.5 6.5 6.5 6.5 6.5 6.5 6.5 6.5 6.5 6.2 5.4 3.7 3.0 2.0 1.0 0.8 1.0 0.2 0.4 0.5 0.9 1.4 2.0 1.7 1.2 1.0 1.0 1.1 1.9 3.0 1.3 0.3 -0.3 -0.5 -0.9 -0.0 1.0 0.6 2.0 2.8 1.6 2.1 1.5 1.6 1.3 1.8
6.5 6.5 6.5 6.5 6.5 6.5 6.5 6.5 6.5 6.5 5.6 4.3 4.0 3.3 2.3 1.6 2.5 1.7 1.2 1.2 0.9 0.4 0.7 1.1 1.3 2.7 1.8 1.1 0.8 1.4 2.7 2.3 2.6 1.3 0.2 0.3 0.0 0.4 1.4 1.4 2.3 2.1 2.0 2.4 3.4 2.2 1.3 1.9 2.3
6.5 6.5 6.5 6.5 6.5 6.5 6.5 6.5 6.5 6.5 6.5 5.7 5.3 4.4 2.2 1.7 1.7 1.6 0.8 0.6 1.2 0.4 0.4 0.7 1.6 1.7 0.5 0.8 1.0 1.2 1.8 0.9 1.2 0.7 1.2 0.7 0.5 0.7 0.5 1.2 1.4 3.0 3.6 3.8 3.1 2.2 2.3 2.4 2.7
6.5 6.5 6.5 6.5 6.5 6.5 6.5 6.5 6.5 6.5 6.5 6.5 6.4 4.4 2.6 1.7 0.3 -0.0 -0.1 0.3 0.1 0.2 0.3 0.2 1.0 0.5 -0.6 -0.9 -1.1 -0.8 -0.1 0.1 -0.1 0.3 0.3 0.6 0.4 1.3 1.4 2.2 2.5 3.5 4.1 3.8 3.1 2.6 2.6 2.9 2.9
6.5 6.5 6.5 6.5 6.5 6.5 6.5 6.5 6.5 6.5 6.5 6.5 6.3 3.2 2.1 0.8 -0.7 -0.9 -0.5 0.1 -0.1 0.1 -0.1 -0.5 -1.2 -1.3 -2.4 -1.5 -1.7 -1.4 -0.6 -0.6 -0.9 -0.5 -0.4 0.9 1.1 1.9 2.6 2.6 3.0 3.8 3.8 3.4 2.7 3.0 3.1 3.4 3.6
6.5 6.5 6.5 6.5 6.5 6.5 6.5 6.5 6.5 6.5 6.6 5.6 3.7 3.2 1.5 0.8 0.0 -0.4 -0.3 -0.7 -1.5 -1.5 -1.5 -1.1 -2.1 -2.7 -2.8 -2.9 -1.9 -1.3 -1.3 -1.4 -0.3 0.4 0.8 0.5 1.8 2.4 3.0 2.8 3.3 4.1 4.1 3.7 3.7 4.0 4.2 3.7 3.7
Wind_Speed
5 2 3 4 4 5 3 6 3 4 2 5 4 2 4 4 0 2 2 4 16 16 21 24 27 28 29 28 28 28 28 28 27 25 24 22 22 23 23 23 24 25 26 25 24 23 24 23 19
4 2 4 3 5 3 5 4 3 3 3 6 3 2 6 5 2 4 3 8 13 17 19 19 25 27 27 28 28 29 28 29 26 24 24 23 23 22 23 22 24 26 26 26 25 25 25 25 24
3 3 3 4 4 4 5 4 1 3 5 3 3 5 3 4 3 1 4 13 13 15 16 17 21 25 26 26 28 27 24 25 24 23 24 23 22 22 21 22 24 26 26 26 25 24 21 21 22
2 4 4 4 5 5 5 4 2 2 4 5 3 5 4 6 5 2 6 12 10 12 15 20 22 25 26 24 27 25 26 24 22 23 22 22 22 22 19 20 22 25 24 24 23 24 20 22 23
4 3 3 1 3 5 4 1 1 2 4 2 3 2 4 3 5 9 9 8 8 6 12 19 23 23 24 24 24 22 22 22 22 23 21 20 20 19 18 17 18 19 22 21 21 20 21 23 23
4 3 4 1 4 4 1 3 4 2 3 3 4 6 4 6 5 11 13 11 8 6 11 13 23 21 22 19 22 19 21 22 21 20 21 19 17 16 16 16 16 17 17 20 18 19 22 24 23
5 3 3 3 4 5 3 4 2 5 5 2 0 5 5 6 13 13 12 13 10 11 16 19 18 22 17 18 18 18 19 21 21 20 19 17 17 17 15 15 14 15 16 17 19 18 20 21 19
5 4 2 2 3 5 2 2 2 3 2 5 5 4 5 4 15 15 14 13 12 10 14 23 22 14 11 13 18 18 20 18 19 19 19 19 18 16 15 13 14 13 13 15 18 20 18 18 17
3 4 2 4 2 5 2 1 1 2 4 4 5 2 9 13 15 14 12 13 11 15 13 21 14 13 14 14 12 14 18 19 21 17 18 16 14 11 11 11 11 12 11 13 15 17 19 19 17
4 3 5 5 4 4 3 3 4 3 3 3 6 11 12 13 15 12 11 13 14 16 17 12 1 6 9 10 10 12 15 17 18 16 15 14 12 9 10 9 11 9 12 13 16 18 19 19 18
5 5 6 7 7 3 5 2 3 8 2 5 9 12 9 9 10 12 14 14 15 16 13 13 8 4 7 7 10 10 11 13 14 15 13 11 10 10 8 7 8 13 16 15 17 19 21 20 18
2 7 5 4 4 4 5 4 4 2 3 10 11 11 9 10 10 12 15 13 13 13 11 14 17 9 5 8 9 9 9 12 12 12 10 11 8 7 6 8 11 14 13 16 19 17 18 18 16
3 4 2 5 7 5 6 2 4 4 5 10 8 10 11 10 11 9 12 10 12 10 11 12 9 5 5 6 8 8 8 10 11 11 8 10 10 7 9 11 12 13 15 16 14 15 14 15 15
3 5 2 4 3 4 8 2 2 1 3 6 9 8 8 11 10 9 10 10 11 11 12 15 10 7 9 5 7 7 9 11 11 11 10 9 12 13 10 9 10 13 17 15 16 13 11 10 10
3 0 2 2 4 3 7 3 3 8 5 6 5 4 6 6 7 8 7 9 11 9 10 8 6 8 7 7 8 9 10 10 9 11 14 11 12 11 12 10 8 12 17 17 15 12 10 9 7
4 3 1 1 2 1 3 1 3 7 8 5 5 4 4 5 4 3 7 6 7 7 7 7 6 7 7 8 9 9 9 10 9 10 11 11 10 11 13 11 8 14 14 13 9 6 4 4 4
6 1 4 3 4 3 2 1 5 8 8 7 6 6 5 5 6 7 7 7 7 7 7 7 7 7 7 8 9 8 11 10 10 10 10 11 13 15 15 12 12 14 12 8 5 4 3 2 2
1 2 3 2 3 2 4 2 5 12 10 11 9 6 7 7 13 9 8 7 6 6 6 6 6 7 7 5 6 5 4 4 9 8 9 12 14 16 15 13 13 12 9 4 4 3 4 2 1
3 2 3 5 4 6 9 5 11 12 8 7 9 7 8 11 9 7 8 8 8 7 6 7 8 8 8 3 4 3 3 2 2 6 11 12 15 16 15 13 11 8 4 4 3 3 3 2 1
2 4 6 6 3 5 4 6 12 13 16 15 15 12 14 13 7 8 8 9 11 11 10 8 9 10 8 7 3 3 3 2 2 6 8 13 16 16 13 12 8 9 4 5 4 3 2 1 1
4 2 5 4 5 1 4 2 5 5 5 7 9 11 9 12 13 12 13 14 13 14 13 11 10 10 9 7 5 3 5 4 2 2 3 6 14 14 14 13 12 11 9 4 3 2 2 2 2
2 5 3 5 1 1 3 3 4 5 15 8 13 10 13 12 9 10 13 13 14 11 8 9 9 10 9 9 8 6 5 4 4 4 3 6 12 14 16 17 15 12 10 5 3 3 4 3 2
8 3 2 2 2 3 3 4 4 4 7 18 15 15 14 14 14 13 15 16 13 10 8 8 10 11 9 11 10 7 4 3 2 4 7 5 9 15 16 17 14 11 10 6 4 2 4 3 2
1 2 6 4 3 2 3 4 5 5 12 17 15 15 16 13 13 13 10 8 9 7 9 9 11 11 10 12 9 10 9 7 6 5 5 5 4 8 13 16 15 11 9 5 5 7 4 3 2
3 5 3 3 4 4 3 2 8 8 4 8 11 16 17 15 13 10 11 11 9 11 11 10 10 10 7 10 9 9 10 10 13 12 8 9 6 4 6 11 9 8 8 9 5 4 4 3 2
3 6 5 2 2 3 3 5 6 2 5 7 8 7 8 9 11 13 14 13 13 13 12 11 12 14 12 11 10 9 10 7 7 9 8 7 7 8 15 11 11 9 10 9 6 2 2 2 3
3 2 4 6 3 2 3 6 9 3 4 6 6 2 9 9 12 15 11 13 12 13 14 15 14 14 12 13 9 9 9 10 10 11 10 9 9 8 11 11 9 9 10 8 6 2 2 3 4
2 6 3 3 2 3 4 4 5 7 4 2 5 7 6 4 7 6 8 10 9 9 10 11 13 15 11 8 8 8 10 10 11 11 12 11 8 10 9 7 8 7 8 7 6 4 4 5 4
2 2 4 5 4 4 1 5 7 7 6 6 5 8 8 7 7 7 7 8 9 7 8 10 8 8 7 7 6 7 7 8 9 10 10 11 10 8 7 9 8 7 7 7 5 5 5 6 5
5 6 6 5 4 1 4 6 5 8 6 5 9 4 5 7 7 6 5 5 7 10 7 8 5 7 7 7 6 7 8 9 11 11 12 11 12 9 7 5 7 6 5 5 6 6 6 6 6
Wind_Direction
117 103 84 44 62 65 275 264 259 281 299 349 4 7 107 55 139 237 114 157 136 140 140 140 138 134 132 129 125 121 120 121 122 123 121 119 115 114 111 108 105 102 97 90 81 79 82 87 99
128 106 44 86 85 74 266 259 263 3 315 299 58 333 43 61 48 88 113 135 138 133 138 144 140 133 130 129 126 126 126 124 124 126 122 121 118 116 112 107 101 97 94 91 85 85 86 89 96
129 54 84 96 119 186 219 232 328 66 34 18 42 68 29 7 28 42 128 137 128 134 138 144 138 132 128 127 126 125 127 122 127 125 124 121 119 115 109 105 101 100 96 94 89 89 90 93 96
95 12 40 95 219 266 220 284 33 197 0 22 153 66 88 10 329 81 130 126 136 132 140 145 136 133 130 131 127 129 125 127 125 123 125 122 121 117 110 105 102 102 103 97 95 88 89 94 101
37 51 78 205 249 248 230 287 250 144 127 289 170 50 80 57 87 82 79 75 92 117 142 137 133 131 127 130 124 125 128 124 126 125 124 123 122 117 107 107 104 106 105 102 94 94 93 100 106
37 97 65 315 250 264 240 187 157 166 181 228 78 119 68 113 60 62 65 61 66 111 104 123 124 120 114 118 114 127 119 123 122 123 122 121 119 117 114 109 105 95 96 94 100 96 96 104 107
118 76 204 211 269 280 184 145 196 174 188 194 323 113 106 125 91 83 79 69 53 93 98 93 86 90 107 111 122 125 125 124 124 125 119 121 123 119 117 107 97 90 86 90 95 104 97 102 116
106 88 326 271 259 284 109 93 41 15 46 318 342 118 147 138 113 99 94 82 62 48 116 109 107 129 108 117 129 133 122 128 122 113 126 133 131 125 115 106 96 97 98 91 94 103 98 96 99
124 64 259 256 231 273 110 163 52 34 76 50 333 18 125 130 118 98 91 82 86 90 71 100 138 127 115 121 134 129 129 122 115 130 137 132 124 120 116 105 108 103 97 90 89 95 104 92 84
97 140 235 217 214 240 141 147 145 84 117 62 85 109 122 133 132 120 116 111 110 110 119 118 136 104 116 122 144 129 118 124 131 142 143 141 135 125 112 108 102 100 105 98 96 93 90 87 83
166 206 229 246 244 182 162 121 128 128 212 187 164 139 137 132 126 118 120 133 132 126 127 117 149 144 120 141 139 110 126 133 142 153 155 136 126 131 125 105 90 96 104 99 96 86 80 82 79
222 231 222 310 178 121 147 125 65 21 296 145 155 152 137 123 137 137 136 140 139 139 149 150 164 209 191 145 119 133 149 150 156 165 153 147 136 125 116 127 112 101 102 93 88 85 84 78 72
213 271 290 224 139 94 90 68 137 27 147 133 109 139 153 159 145 151 143 158 160 152 167 183 191 211 183 132 142 151 163 162 165 166 178 162 155 143 128 121 115 106 104 100 94 89 86 74 71
235 301 29 51 118 107 117 181 57 139 162 126 143 160 176 171 155 150 159 156 173 168 179 185 199 196 163 149 154 166 167 174 174 178 181 152 154 143 131 119 107 97 104 105 100 94 90 85 85
281 352 64 90 170 135 131 41 67 148 154 141 158 166 158 179 140 158 150 189 177 180 165 180 177 179 165 159 162 170 172 175 169 161 163 153 147 141 130 116 108 114 114 110 107 97 94 83 75
30 63 133 163 127 108 78 211 140 152 144 183 200 230 179 147 162 160 158 179 173 164 169 168 174 179 168 154 165 173 165 170 150 144 154 154 147 148 137 124 127 129 121 119 112 102 73 68 60
10 50 6 36 191 116 55 144 158 163 155 211 219 221 232 181 191 198 191 184 181 181 170 179 172 173 160 151 159 168 164 173 147 159 168 152 148 155 142 130 134 131 119 105 105 64 94 67 54
22 39 328 274 248 162 144 177 170 181 184 203 225 197 236 208 215 194 186 175 188 193 183 170 165 154 146 135 124 122 121 144 156 166 174 160 156 154 137 128 129 127 109 102 78 87 48 74 82
137 127 247 239 233 157 218 163 186 190 212 206 217 209 218 226 216 188 183 175 178 192 190 179 160 165 151 145 142 139 162 148 116 169 163 154 150 146 138 130 123 122 106 98 108 108 88 38 9
118 6 321 284 38 165 182 200 191 182 204 208 205 213 212 220 209 201 185 183 189 191 188 181 183 170 171 165 141 153 146 141 131 134 124 145 146 147 134 131 126 117 103 86 68 78 134 136 38
23 295 297 253 338 77 112 70 167 226 204 211 222 227 230 213 205 202 196 199 201 200 193 191 186 175 173 161 128 85 83 71 76 89 106 136 147 141 137 127 118 110 116 115 109 142 175 146 90
305 205 227 269 22 197 67 253 253 230 216 216 223 207 222 222 198 204 202 206 210 213 194 181 169 175 178 167 165 161 170 156 185 153 130 124 144 133 133 126 120 115 114 111 134 161 156 101 79
230 174 293 309 95 70 329 84 263 148 227 234 227 222 214 212 212 204 203 204 197 185 181 182 177 185 178 183 184 172 154 116 123 116 120 124 126 126 126 126 119 114 117 127 133 118 69 89 120
185 92 43 42 65 49 287 116 280 194 212 228 229 230 225 206 203 211 207 174 195 175 169 175 181 195 182 186 180 175 154 138 145 132 143 145 131 128 127 123 124 131 123 110 111 94 100 121 120
101 64 349 7 17 219 312 31 234 255 283 231 218 221 222 212 200 195 186 187 178 182 183 178 180 204 196 191 182 169 161 166 176 167 166 157 154 142 150 146 144 144 122 128 134 122 133 149 176
149 147 150 218 194 257 245 236 265 220 303 285 256 229 196 196 201 201 200 193 189 185 181 176 185 198 196 193 194 183 180 179 186 172 160 165 165 164 167 151 145 153 165 143 144 143 121 166 206
169 152 162 105 2 51 259 294 302 16 3 333 321 261 189 197 199 203 188 198 186 184 186 186 190 211 209 205 189 182 179 182 180 164 171 168 164 166 159 163 157 172 177 156 133 142 213 205 204
173 157 76 13 170 253 293 288 242 319 305 255 289 275 279 188 214 209 183 191 198 188 185 182 193 203 199 196 190 182 184 180 167 164 173 172 164 157 170 168 168 170 173 156 160 190 212 199 221
131 186 60 114 130 172 212 263 218 240 258 304 241 239 245 230 214 203 194 191 197 200 179 194 189 174 178 179 169 161 174 169 166 178 174 172 165 166 168 171 169 181 176 173 187 205 196 211 225
169 183 144 128 208 140 155 271 247 236 261 293 292 271 219 219 205 202 208 185 185 200 186 185 162 165 169 164 155 157 156 161 176 181 175 167 174 182 164 152 168 190 166 186 203 212 213 215 222